Location: Klickitat County Star Party
(45.8642°N, 120.6771°W)
Time: 18:48:58
(UTC-08:00)

BEESAT - Visible Passes

Search period start: 20 November 2019 00:00
Search period end: 30 November 2019 00:00
Orbit: 700 x 709 km, 98.6° (Epoch: 20 November)

Date Brightness Start Highest point End Pass type
(mag) Time Alt. Az. Time Alt. Az. Time Alt. Az.
20 Nov ? 03:08:43 10° E 03:09:28 12° E 03:09:28 12° E visible
20 Nov ? 04:44:00 10° S 04:48:23 69° SW 04:48:23 69° SW visible
20 Nov ? 18:19:12 10° N 18:23:42 43° WNW 18:28:11 10° SW visible
21 Nov ? 03:50:15 10° SE 03:53:15 30° E 03:53:15 30° E visible
21 Nov ? 05:28:17 10° SSW 05:32:11 28° W 05:32:11 28° W visible
21 Nov ? 17:24:45 10° NNE 17:29:28 58° ESE 17:34:09 10° S visible
21 Nov ? 19:03:28 10° NNW 19:06:46 19° WNW 19:10:06 10° WSW visible
22 Nov ? 04:33:06 10° SSE 04:37:04 63° SSE 04:37:04 63° SSE visible
22 Nov ? 06:15:01 10° WSW 06:15:59 11° W 06:15:59 11° W visible
22 Nov ? 18:08:13 10° N 18:12:52 55° WNW 18:17:31 10° SSW visible
23 Nov ? 03:39:43 10° SE 03:41:57 22° ESE 03:41:57 22° ESE visible
23 Nov ? 05:17:04 10° SSW 05:20:53 34° WSW 05:20:53 34° WSW visible
23 Nov ? 17:13:58 10° NNE 17:18:33 45° E 17:23:07 10° S visible
23 Nov ? 18:52:17 10° N 18:56:01 23° WNW 18:59:46 10° WSW visible
24 Nov ? 04:22:17 10° SSE 04:25:46 48° SE 04:25:46 48° SE visible
24 Nov ? 06:02:43 10° WSW 06:04:42 14° W 06:04:42 14° W visible
24 Nov ? 17:57:17 10° N 18:02:02 71° WNW 18:06:46 10° SSW visible
24 Nov ? 19:38:11 10° NW 19:38:54 10° NW 19:39:38 10° WNW visible
25 Nov ? 03:29:17 10° ESE 03:30:40 16° E 03:30:40 16° E visible
25 Nov ? 05:05:56 10° S 05:09:36 40° SW 05:09:36 40° SW visible
25 Nov ? 17:03:13 10° NNE 17:07:37 36° E 17:11:59 10° SSE visible
25 Nov ? 18:41:10 10° N 18:45:15 29° WNW 18:49:20 10° SW visible
26 Nov ? 04:11:32 10° SSE 04:14:30 36° SE 04:14:30 36° SE visible
26 Nov ? 05:50:59 10° SW 05:53:26 18° WSW 05:53:26 18° WSW visible
26 Nov ? 17:46:23 10° NNE 17:51:10 89° WNW 17:55:56 10° SSW visible
26 Nov ? 19:26:04 10° NNW 19:28:12 13° WNW 19:30:20 10° W visible
27 Nov ? 03:18:57 10° ESE 03:19:24 12° E 03:19:24 12° E visible
27 Nov ? 04:54:54 10° S 04:58:20 44° SSW 04:58:20 44° SSW visible
27 Nov ? 16:52:33 10° NE 16:56:40 28° E 17:00:46 10° SSE visible
27 Nov ? 18:30:07 10° N 18:34:28 36° WNW 18:38:48 10° SW visible
28 Nov ? 04:00:51 10° SE 04:03:15 27° ESE 04:03:15 27° ESE visible
28 Nov ? 05:39:30 10° SW 05:42:10 21° WSW 05:42:10 21° WSW visible
28 Nov ? 17:35:31 10° NNE 17:40:18 72° ESE 17:45:03 10° S visible
28 Nov ? 19:14:37 10° NNW 19:17:29 16° WNW 19:20:20 10° W visible
29 Nov ? 04:43:56 10° S 04:47:05 42° S 04:47:05 42° S visible
29 Nov ? 18:19:06 10° N 18:23:39 45° WNW 18:28:11 10° SW visible
